1298851231284,31.4144
1298851291284,31.5605
1298851351284,31.4374
1298851411284,31.4971
1298851471284,31.4379
1298851531284,31.4076
1298851591284,31.4850
1298851651284,31.4072
1298851711284,31.4070
1298851771284,31.4052
1298851831284,31.4045
1298851891284,31.3960
1298851951284,31.4178
1298852011284,31.4353
1298852071284,31.4914
1298852131284,31.4064
1298852191284,31.4068
1298852251284,31.4112
1298852311284,31.3822
1298852371284,31.3409
1298852431284,31.3215
1298852491284,31.3103
1298852551284,31.2654
1298852611284,31.1810
1298852671284,31.3195
1298852731284,31.2334
1298852791284,31.2501
1298852851284,31.2588
1298852911284,31.2780
1298852971284,31.2964
1298853031284,31.2779
1298853091284,31.3106
1298853151284,31.2706
1298853211284,31.4022
1298853271284,31.2575
1298853331284,31.2106
1298853391284,31.3024
1298853451284,31.2319
1298853511284,31.2234
1298853571284,31.2907
1298853631284,31.3372
1298853691284,31.2294
1298853751284,31.2337
1298853811284,31.1897
1298853871284,31.2627
1298853931284,31.1355
1298853991284,31.2110
1298854051284,31.2712
1298854111284,31.2335
1298854171284,31.1674
1298854231284,31.2375
1298854291284,31.1335
1298854351284,31.1770
1298854411284,31.1841
1298854471284,31.2317
1298854531284,31.2238
1298854591284,31.1500
1298854651284,31.0945
1298854711284,31.1110
1298854771284,31.1805
1298854831295,31.0944
1298854891295,31.0181
1298854951295,31.0986
1298855011295,31.0536
1298855071295,30.9471
1298855131295,31.0472
1298855191295,31.0383
1298855251295,31.1098
1298855311295,31.0868
1298855371295,31.0349
1298855431295,31.0450
1298855491295,31.0116
1298855551295,31.0500
1298855611295,31.0942
1298855671295,31.0020
1298855731295,30.9876
1298855791295,30.9796
1298855851295,30.9847
1298855911295,30.9205
1298855971295,30.9683
1298856031295,30.9323
1298856091295,30.9282
1298856151295,31.0323
1298856211295,30.9719
1298856271295,30.9847
1298856331295,30.8553
1298856391295,30.9573
1298856451295,30.9616
1298856511295,30.8868
1298856571295,30.9331
1298856631295,30.8818
1298856691295,30.8413
1298856751295,30.8376
1298856811295,30.8149
1298856871295,30.7696
1298856931295,30.7742
1298856991295,30.9014
1298857051295,30.8861
1298857111295,30.9042
1298857171295,30.8658
1298857231295,30.9042
1298857291295,30.9666
1298857351295,30.8652
1298857411295,30.8208
1298857471295,30.8527
1298857531295,30.8607
1298857591295,30.9514
1298857651295,30.8297
1298857711295,30.8146
1298857771295,30.8836
1298857831295,30.8718
1298857891295,30.9188
1298857951295,30.8858
1298858011295,30.9412
1298858071295,30.8139
1298858131295,30.8895
1298858191295,30.9353
1298858251295,30.8515
1298858311295,31.0232
1298858371295,30.8977
1298858431307,30.9050
1298858491307,30.8827
1298858551307,30.9238
1298858611307,30.8875
1298858671307,30.8669
1298858731307,30.9076
1298858791307,30.9527
1298858851307,31.0963
1298858911307,30.8933
1298858971307,30.8967
1298859031307,30.8843
1298859091307,30.8280
1298859151307,30.7805
1298859211307,30.9606
1298859271307,30.9710
1298859331307,31.0232
1298859391307,30.9035
1298859451307,30.9672
1298859511307,30.9386
1298859571307,30.9479
1298859631307,30.9886
1298859691307,31.0760
1298859751307,30.9693
1298859811307,30.9895
1298859871307,31.1862
1298859931307,30.8920
1298859991307,31.0033
1298860051307,31.0356
1298860111307,31.0579
1298860171307,30.9130
1298860231307,30.9949
1298860291307,30.9936
1298860351307,31.0784
1298860411307,30.9336
1298860471307,30.9502
1298860531307,31.0297
1298860591307,31.0379
1298860651307,31.1074
1298860711307,31.0120
1298860771307,31.1273
1298860831307,31.0612
1298860891307,31.1951
1298860951307,31.1568
1298861011307,30.9814
1298861071307,31.0541
1298861131307,31.0868
1298861191307,31.1574
1298861251307,31.0752
1298861311307,30.9500
1298861371307,31.0582
1298861431307,31.0691
1298861491307,31.1050
1298861551307,31.0918
1298861611307,31.1512
1298861671307,31.0451
1298861731307,31.1912
1298861791307,31.1903
1298861851307,31.1120
1298861911307,31.1172
1298861971307,31.1392
1298862031318,31.1634
1298862091318,31.2126
1298862151318,31.1332
1298862211318,31.2587
1298862271318,31.2495
1298862331318,31.1972
1298862391318,31.2093
1298862451318,31.2088
1298862511318,31.2429
1298862571318,31.2535
1298862631318,31.3324
1298862691318,31.2455
1298862751318,31.3650
1298862811318,31.2227
1298862871318,31.3016
1298862931318,31.2220
1298862991318,31.2838
1298863051318,31.3340
1298863111318,31.3196
1298863171318,31.2836
1298863231318,31.3136
1298863291318,31.3818
1298863351318,31.3762
1298863411318,31.4287
1298863471318,31.2695
1298863531318,31.3684
1298863591318,31.3680
1298863651318,31.4413
1298863711318,31.3880
1298863771318,31.3837
1298863831318,31.2641
1298863891318,31.3680
1298863951318,31.3985
1298864011318,31.4289
1298864071318,31.2832
1298864131318,31.3960
1298864191318,31.3140
1298864251318,31.3937
1298864311318,31.3122
1298864371318,31.2956
1298864431318,31.3399
1298864491318,31.3815
1298864551318,31.2755
1298864611318,31.2843
1298864671318,31.2833
1298864731318,31.3306
1298864791318,31.4182
1298864851318,31.5581
1298864911318,31.3306
1298864971318,31.3322
1298865031318,31.3483
1298865091318,31.4524
1298865151318,31.3444
1298865211318,31.4372
1298865271318,31.3221
1298865331318,31.3595
1298865391318,31.3008
1298865451318,31.2309
1298865511318,31.3368
1298865571318,31.2144
1298865631330,31.3854
1298865691330,31.2324
1298865751330,31.2173
1298865811330,31.3670
1298865871330,31.2869
1298865931330,31.3584
1298865991330,31.2921
1298866051330,31.3314
1298866111330,31.2994
1298866171330,31.2388
1298866231330,31.2482
1298866291330,31.2904
1298866351330,31.2837
1298866411330,31.2893
1298866471330,31.2798
1298866531330,31.2754
1298866591330,31.2144
1298866651330,31.2091
1298866711330,31.1766
1298866771330,31.2903
1298866831330,31.2194
1298866891330,31.2660
1298866951330,31.2508
1298867011330,31.3504
1298867071330,31.1814
1298867131330,31.3005
1298867191330,31.3135
1298867251330,31.1770
1298867311330,31.2216
1298867371330,31.2324
1298867431330,31.3242
1298867491330,31.2625
1298867551330,31.3277
1298867611330,31.3153
1298867671330,31.3359
1298867731330,31.2911
1298867791330,31.2731
1298867851330,31.1372
1298867911330,31.3159
1298867971330,31.2441
1298868031330,31.2266
1298868091330,31.2730
1298868151330,31.3544
1298868211330,31.2510
1298868271330,31.2775
1298868331330,31.2662
1298868391330,31.1259
1298868451330,31.0903
1298868511330,31.2467
1298868571330,31.2628
1298868631330,31.2136
1298868691330,31.2211
1298868751330,31.1682
1298868811330,31.3960
1298868871330,31.2129
1298868931330,31.0907
1298868991330,31.1181
1298869051330,31.3249
1298869111330,31.1777
1298869171330,31.1398
1298869231341,31.1330
1298869291341,31.0060
1298869351341,31.0575
1298869411341,31.2132
1298869471341,31.0006
1298869531341,30.9432
1298869591341,31.0708
1298869651341,31.0448
1298869711341,31.0276
1298869771341,31.0787
1298869831341,31.1279
1298869891341,31.0079
1298869951341,31.1097
1298870011341,31.1444
1298870071341,31.1201
1298870131341,31.1026
1298870191341,31.0863
1298870251341,31.0546
1298870311341,30.9896
1298870371341,31.1077
1298870431341,30.9984
1298870491341,31.1227
1298870551341,30.9686
1298870611341,30.9794
1298870671341,31.0676
1298870731341,31.0890
1298870791341,31.0063
1298870851341,31.0914
1298870911341,31.1401
1298870971341,31.0895
1298871031341,31.0284
1298871091341,31.1288
1298871151341,31.1264
1298871211341,31.0490
1298871271341,31.1576
1298871331341,30.9803
1298871391341,31.0535
1298871451341,31.0855
1298871511341,31.1274
1298871571341,31.1008
1298871631341,31.1373
1298871691341,31.0594
1298871751341,31.0755
1298871811341,31.1005
1298871871341,31.0212
1298871931341,31.0896
1298871991341,31.1713
1298872051341,31.0138
1298872111341,31.1280
1298872171341,31.1144
1298872231341,31.0587
1298872291341,31.0456
1298872351341,30.9453
1298872411341,31.0327
1298872471341,30.9157
1298872531341,30.9589
1298872591341,30.9210
1298872651341,31.0303
1298872711341,30.9352
1298872771341,31.0006
1298872831353,31.0664
1298872891353,31.0404
1298872951353,31.1383
1298873011353,31.1142
1298873071353,31.0921
1298873131353,31.0389
1298873191353,31.0195
1298873251353,30.9910
1298873311353,31.0295
1298873371353,31.0836
1298873431353,31.0614
1298873491353,31.0799
1298873551353,31.0045
1298873611353,31.0098
1298873671353,30.9846
1298873731353,31.0416
1298873791353,31.0494
1298873851353,30.9733
1298873911353,30.9756
1298873971353,30.9928
1298874031353,31.0576
1298874091353,31.0819
1298874151353,31.0493
1298874211353,31.0628
1298874271353,31.1266
1298874331353,31.1631
1298874391353,31.1764
1298874451353,31.1145
1298874511353,31.1187
1298874571353,31.0895
1298874631353,31.2653
1298874691353,31.1627
1298874751353,31.1095
1298874811353,31.1871
1298874871353,31.1480
1298874931353,31.2180
1298874991353,31.1438
1298875051353,31.2661
1298875111353,31.2866
1298875171353,31.1834
1298875231353,31.2254
1298875291353,31.2150
1298875351353,31.3123
1298875411353,31.2873
1298875471353,31.2674
1298875531353,31.3209
1298875591353,31.3148
1298875651353,31.3709
1298875711353,31.3737
1298875771353,31.3907
1298875831353,31.4061
1298875891353,31.3873
1298875951353,31.4170
1298876011353,31.2733
1298876071353,31.3517
1298876131353,31.3564
1298876191353,31.4261
1298876251353,31.3602
1298876311353,31.3131
1298876371353,31.3676
1298876431365,31.4603
1298876491365,31.3924
1298876551365,31.3281
1298876611365,31.4121
1298876671365,31.4116
1298876731365,31.4191
1298876791365,31.4013
1298876851365,31.3874
1298876911365,31.4168
1298876971365,31.3109
1298877031365,31.3991
1298877091365,31.3948
1298877151365,31.3740
1298877211365,31.4142
1298877271365,31.5221
1298877331365,31.5271
1298877391365,31.5422
1298877451365,31.5941
1298877511365,31.5982
1298877571365,31.4390
1298877631365,31.6544
1298877691365,31.5603
1298877751365,31.6918
1298877811365,31.6129
1298877871365,31.5116
1298877931365,31.6025
1298877991365,31.5241
1298878051365,31.5753
1298878111365,31.5475
1298878171365,31.5075
1298878231365,31.4055
1298878291365,31.5733
1298878351365,31.5218
1298878411365,31.6364
1298878471365,31.5135
1298878531365,31.6118
1298878591365,31.5626
1298878651365,31.5755
1298878711365,31.6922
1298878771365,31.7936
1298878831365,31.6980
1298878891365,31.8221
1298878951365,31.7705
1298879011365,31.7019
1298879071365,31.7005
1298879131365,31.6723
1298879191365,31.6827
1298879251365,31.6771
1298879311365,31.6178
1298879371365,31.5088
1298879431365,31.5892
1298879491365,31.5476
1298879551365,31.5837
1298879611365,31.5546
1298879671365,31.5480
1298879731365,31.5859
1298879791365,31.4985
1298879851365,31.6055
1298879911365,31.5818
1298879971365,31.5704
1298880031376,31.6334
1298880091376,31.5077
1298880151376,31.5384
1298880211376,31.4367
1298880271376,31.3376
1298880331376,31.4556
1298880391376,31.3874
1298880451376,31.4870
1298880511376,31.5038
1298880571376,31.6161
1298880631376,31.4829
1298880691376,31.3522
1298880751376,31.4090
1298880811376,31.4314
1298880871376,31.4241
1298880931376,31.4386
1298880991376,31.5286
1298881051376,31.5597
1298881111376,31.4113
1298881171376,31.3763
1298881231376,31.4785
1298881291376,31.4974
1298881351376,31.4570
1298881411376,31.3799
1298881471376,31.3271
1298881531376,31.3584
1298881591376,31.3885
1298881651376,31.4729
1298881711376,31.3630
1298881771376,31.3390
1298881831376,31.3349
1298881891376,31.4429
1298881951376,31.2647
1298882011376,31.3948
1298882071376,31.3355
1298882131376,31.2899
1298882191376,31.4567
1298882251376,31.4112
1298882311376,31.3604
1298882371376,31.2771
1298882431376,31.3596
1298882491376,31.3273
1298882551376,31.3159
1298882611376,31.2840
1298882671376,31.2689
1298882731376,31.3048
1298882791376,31.2805
1298882851376,31.3103
1298882911376,31.1884
1298882971376,31.2146
1298883031376,31.1819
1298883091376,31.2643
1298883151376,31.2536
1298883211376,31.2781
1298883271376,31.0790
1298883331376,31.0377
1298883391376,31.2119
1298883451376,31.0503
1298883511376,31.1396
1298883571376,31.0737
1298883631388,31.1039
1298883691388,31.1060
1298883751388,31.1612
1298883811388,31.1580
1298883871388,31.0701
1298883931388,30.9583
1298883991388,31.1545
1298884051388,30.9937
1298884111388,31.1091
1298884171388,30.9814
1298884231388,31.0899
1298884291388,31.0549
1298884351388,31.0928
1298884411388,31.0327
1298884471388,31.0805
1298884531388,31.0938
1298884591388,30.9767
1298884651388,30.9734
1298884711388,31.0807
1298884771388,30.9576
1298884831388,31.0532
1298884891388,30.9380
1298884951388,30.9493
1298885011388,30.9092
1298885071388,31.0040
1298885131388,31.0179
1298885191388,31.0553
1298885251388,30.8673
1298885311388,30.8713
1298885371388,30.8871
1298885431388,30.9714
1298885491388,30.9336
1298885551388,30.8699
1298885611388,30.7942
1298885671388,30.8113
1298885731388,30.8565
1298885791388,30.8924
1298885851388,30.8146
1298885911388,30.8082
1298885971388,30.8647
1298886031388,30.9164
1298886091388,30.8413
1298886151388,30.9069
1298886211388,30.8236
1298886271388,30.8289
1298886331388,30.8909
1298886391388,30.7742
1298886451388,30.8242
1298886511388,30.8322
1298886571388,30.7333
1298886631388,30.7218
1298886691388,30.8103
1298886751388,30.7659
1298886811388,30.7290
1298886871388,30.7886
1298886931388,30.7728
1298886991388,30.9488
1298887051388,30.8819
1298887111388,30.8528
1298887171388,30.8114
1298887231400,30.7803
1298887291400,30.8689
1298887351400,30.9063
1298887411400,30.9997
1298887471400,30.9128
1298887531400,30.8671
1298887591400,30.8594
1298887651400,30.9586
1298887711400,30.9257
1298887771400,30.9853
1298887831400,30.9561
1298887891400,30.9946
1298887951400,30.9610
1298888011400,30.9268
1298888071400,31.0008
1298888131400,31.0409
1298888191400,30.9177
1298888251400,31.0308
1298888311400,30.9569
1298888371400,31.0480
1298888431400,31.0333
1298888491400,30.8094
1298888551400,30.8100
1298888611400,30.9266
1298888671400,30.7844
1298888731400,30.8912
1298888791400,30.8208
1298888851400,30.8580
1298888911400,30.8764
1298888971400,30.9126
1298889031400,30.8963
1298889091400,30.8109
1298889151400,30.9056
1298889211400,30.7047
1298889271400,30.8940
1298889331400,30.8413
1298889391400,30.7415
1298889451400,30.8855
1298889511400,30.8167
1298889571400,30.9097
1298889631400,30.9066
1298889691400,30.7785
1298889751400,30.8206
1298889811400,30.8122
1298889871400,30.8215
1298889931400,30.8996
1298889991400,30.8738
1298890051400,30.7862
1298890111400,30.7590
1298890171400,30.8096
1298890231400,30.7557
1298890291400,30.8240
1298890351400,30.8431
1298890411400,30.8278
1298890471400,30.8844
1298890531400,30.8244
1298890591400,30.8080
1298890651400,30.8100
1298890711400,30.8088
1298890771400,30.8048
1298890831411,30.7927
1298890891411,30.8685
1298890951411,30.8702
1298891011411,30.8862
1298891071411,30.8308
1298891131411,30.8826
1298891191411,30.9156
1298891251411,30.9461
1298891311411,30.7150
1298891371411,30.9076
1298891431411,30.9460
1298891491411,30.8832
1298891551411,30.7803
1298891611411,30.8094
1298891671411,30.8387
1298891731411,30.8216
1298891791411,30.9848
1298891851411,30.8173
1298891911411,30.7392
1298891971411,30.8684
1298892031411,30.8835
1298892091411,30.9015
1298892151411,30.9086
1298892211411,30.8291
1298892271411,30.8796
1298892331411,30.9340
1298892391411,30.8585
1298892451411,30.7692
1298892511411,30.9438
1298892571411,30.9476
1298892631411,30.9795
1298892691411,30.9567
1298892751411,30.7285
1298892811411,30.7578
1298892871411,30.7931
1298892931411,30.8494
1298892991411,30.8034
1298893051411,30.8511
1298893111411,30.8287
1298893171411,30.8916
1298893231411,30.7733
1298893291411,30.7996
1298893351411,30.7676
1298893411411,30.7626
1298893471411,30.8517
1298893531411,30.9055
1298893591411,30.8080
1298893651411,30.7680
1298893711411,30.7904
1298893771411,30.7260
1298893831411,30.8131
1298893891411,30.7010
1298893951411,30.8874
1298894011411,30.7563
1298894071411,30.7304
1298894131411,30.7003
1298894191411,30.8799
1298894251411,30.6851
1298894311411,30.8058
1298894371411,30.7382
1298894431423,30.8788
1298894491423,30.7728
1298894551423,30.7386
1298894611423,30.7688
1298894671423,30.7434
1298894731423,30.6945
1298894791423,30.9257
1298894851423,30.8880
1298894911423,30.8252
1298894971423,30.8212
1298895031423,30.7786
1298895091423,30.9040
1298895151423,30.8074
1298895211423,30.8310
1298895271423,30.7833
1298895331423,30.8528
1298895391423,30.9010
1298895451423,30.7290
1298895511423,30.8368
1298895571423,30.8805
1298895631423,30.8688
1298895691423,30.8072
1298895751423,30.9170
1298895811423,30.8344
1298895871423,30.7803
1298895931423,30.8659
1298895991423,30.8371
1298896051423,30.7463
1298896111423,30.8465
1298896171423,30.8660
1298896231423,30.8845
1298896291423,30.8114
1298896351423,30.8958
1298896411423,30.6248
1298896471423,30.8913
1298896531423,30.9024
1298896591423,30.8339
1298896651423,30.8832
1298896711423,30.7849
1298896771423,30.8397
1298896831423,30.7988
1298896891423,30.8781
1298896951423,30.8929
1298897011423,30.9732
1298897071423,30.9303
1298897131423,31.0016
1298897191423,31.1103
1298897251423,31.2248
1298897311423,31.3103
1298897371423,31.4795
1298897431423,31.5882
1298897491423,31.3513
1298897551423,31.3396
1298897611423,31.3809
1298897671423,31.4178
1298897731423,31.3824
1298897791423,31.3888
1298897851423,31.3133
1298897911423,31.4492
1298897971423,31.2969
1298898031434,31.5566
1298898091434,31.4449
1298898151434,31.6284
1298898211434,31.6965
1298898271434,31.6780
1298898331434,31.6525
1298898391434,31.5318
1298898451434,31.5270
1298898511434,31.6263
1298898571434,31.6050
1298898631434,31.4817
1298898691434,31.3150
1298899231434,31.5718
1298899291434,31.4609
1298899351434,31.5076
1298899411434,31.5537
1298899471434,31.4978
1298899531434,31.3954
1298899591434,31.4199
1298899651434,31.6198
1298899711434,31.4978
1298899771434,31.5815
1298899831434,31.4908
1298899891434,31.5240
1298899951434,31.5258
1298900011434,31.6419
1298900071434,31.5425
1298900131434,31.6005
1298900191434,31.6229
1298900251434,31.5606
1298900311434,31.5548
1298900371434,31.5699
1298900431434,31.5041
1298900491434,31.6211
1298900551434,31.5480
1298900611434,31.4788
1298900671434,31.5192
1298900731434,31.3861
1298900791434,31.5030
1298900851434,31.5884
1298900911434,31.5749
1298900971434,31.6314
1298901031434,31.6160
1298901091434,31.6329
1298901151434,31.5612
1298901211434,31.6403
1298901271434,31.5999
1298901331434,31.7288
1298901391434,31.6867
1298901451434,31.6504
1298901511434,31.5832
1298901571434,31.7248
1298901631446,31.5904
1298901691446,31.7690
1298901751446,31.6602
1298901811446,31.6095
1298901871446,31.5259
1298901931446,31.6466
1298901991446,31.5115
1298902051446,31.4422
1298902111446,31.4668
1298902171446,31.3958
1298902231446,31.4537
1298902291446,31.3946
1298902351446,31.4745
1298902411446,31.3855
1298902471446,31.3637
1298902531446,31.3259
1298902591446,31.3468
1298902651446,31.2385
1298902711446,31.3284
1298902771446,31.2250
1298902831446,31.3505
1298902891446,31.2728
1298902951446,31.2984
1298903011446,31.3675
1298903071446,31.4896
1298903131446,31.2478
1298903191446,31.2162
1298903251446,31.3312
1298903311446,31.2463
1298903371446,31.2212
1298903431446,31.1876
1298903491446,31.3720
1298903551446,31.3699
1298903611446,31.1513
1298903671446,31.1660
1298903731446,31.2160
1298903791446,31.1802
1298903851446,31.2389
1298903911446,31.2581
1298903971446,31.1044
1298904031446,31.1733
1298904091446,31.1526
1298904151446,31.2171
1298904211446,31.1781
1298904271446,31.1175
1298904331446,31.2294
1298904391446,31.1186
1298904451446,31.1836
1298904511446,31.1623
1298904571446,31.1440
1298904631446,31.1447
1298904691446,31.1062
1298904751446,31.1279
1298904811446,31.0327
1298904871446,31.0776
1298904931446,31.1545
1298904991446,31.1023
1298905051446,31.0731
1298905111446,31.1834
1298905171446,31.0703
1298905231457,31.2056
1298905291457,31.1769
1298905351457,31.0734
1298905411457,31.1673
1298905471457,31.1772
1298905531457,31.0943
1298905591457,31.1272
1298905651457,31.0721
1298905711457,31.1316
1298905771457,31.0046
1298905831457,31.0905
1298905891457,31.1275
1298905951457,31.1524
1298906011457,31.1568
1298906071457,31.0139
1298906131457,31.1400
1298906191457,31.0296
1298906251457,31.0910
1298906311457,30.9972
1298906371457,31.1482
1298906431457,31.1610
1298906491457,31.2457
1298906551457,31.0437
1298906611457,31.0982
1298906671457,31.0082
1298906731457,31.0763
1298906791457,31.1287
1298906851457,30.9538
1298906911457,30.9706
1298906971457,31.0371
1298907031457,31.6736
1298907091457,31.0316
1298907151457,31.0529
1298907211457,30.9460
1298907271457,30.9494
1298907331457,30.9163
1298907391457,31.0016
1298907451457,31.0571
1298907511457,31.1343
1298907571457,31.0954
1298907631457,31.1009
1298907691457,30.9931
1298907751457,30.9747
1298907811457,31.0687
1298907871457,31.0238
1298907931457,30.9574
1298907991457,31.0261
1298908051457,31.1086
1298908111457,31.0451
1298908171457,31.0406
1298908231457,31.0478
1298908291457,31.0783
1298908351457,31.0900
1298908411457,31.0547
1298908471457,30.9790
1298908531457,31.1329
1298908591457,31.0558
1298908651457,31.0229
1298908711457,31.1255
1298908771457,31.0277
1298908831468,31.0905
1298908891468,31.1282
1298908951468,31.0949
1298909011468,31.1247
1298909071468,31.1249
1298909131468,31.1565
1298909191468,31.0873
1298909251468,31.1365
1298909311468,31.1931
1298909371468,31.1739
1298909431468,31.2152
1298909491468,31.2120
1298909551468,31.2738
1298909611468,31.3147
1298909671468,31.1965
1298909731468,31.1773
1298909791468,31.2178
1298909851468,31.2147
1298909911468,31.2472
1298909971468,31.2400
1298910031468,31.2910
1298910091468,31.1183
1298910151468,31.2243
1298910211468,31.3103
1298910271468,31.2677
1298910331468,31.2840
1298910391468,31.3032
1298910451468,31.1789
1298910511468,31.2275
1298910571468,31.2590
1298910631468,31.2196
1298910691468,31.2156
1298910751468,31.2590
1298910811468,31.2078
1298910871468,31.2125
1298910931468,31.2279
1298910991468,31.2975
1298911051468,31.1709
1298911111468,31.1979
1298911171468,31.1989
1298911231468,31.1727
1298911291468,31.1070
1298911351468,31.2044
1298911411468,31.1280
1298911471468,31.1270
1298911531468,31.1009
1298911591468,31.2047
1298911651468,31.2662
1298911711468,31.1216
1298911771468,31.1923
1298911831468,31.3084
1298911891468,31.0805
1298911951468,30.9784
1298912011468,31.1519
1298912071468,31.1501
1298912131468,30.9947
1298912191468,31.0307
1298912251468,31.0831
1298912311468,31.0537
1298912371468,30.9857
1298912431479,31.0896
1298912491479,31.0926
1298912551479,31.0240
1298912611479,30.9782
1298912671479,31.0736
1298912731479,31.1076
1298912791479,31.0408
1298912851479,31.0740
1298912911479,31.0863
1298912971479,31.0346
1298913031479,31.1656
1298913091479,31.0244
1298913151479,31.0950
1298913211479,30.9565
1298913271479,30.9721
1298913331479,31.0764
1298913391479,31.0095
1298913451479,31.0105
1298913511479,31.0270
1298913571479,30.9947
1298913631479,30.9774
1298913691479,31.0248
1298913751479,30.9773
1298913811479,30.9875
1298913871479,30.9540
1298913931479,31.0121
1298913991479,31.0639
1298914051479,30.8808
1298914111479,31.0647
1298914171479,30.9490
1298914231479,31.0153
1298914291479,31.0442
1298914351479,31.0008
1298914411479,30.9123
1298914471479,31.0046
1298914531479,30.9594
1298914591479,31.0073
1298914651479,30.9982
1298914711479,31.1061
1298914771479,30.9626
1298914831479,30.9011
1298914891479,30.9013
1298914951479,31.0431
1298915011479,31.0524
1298915071479,31.0043
1298915131479,30.9980
1298915191479,31.0066
1298915251479,30.9237
1298915311479,30.9438
1298915371479,30.8845
1298915431479,30.9449
1298915491479,31.0187
1298915551479,30.8365
1298915611479,30.9507
1298915671479,30.9038
1298915731479,31.0293
1298915791479,31.0064
1298915851479,30.8236
1298915911479,30.9518
1298915971479,30.8986
1298916031490,30.9187
1298916091490,30.7891
1298916151490,30.9419
1298916211490,30.9635
1298916271490,30.8625
1298916331490,30.9675
1298916391490,30.9666
1298916451490,30.8836
1298916511490,30.9596
1298916571490,30.9880
1298916631491,30.9886
1298916691490,30.8728
1298916751490,30.9412
1298916811490,31.0325
1298916871490,30.9131
1298916931490,31.0733
1298916991490,30.9642
1298917051490,30.9383